Theta_e
316 311 308 312 316 316 315 312 311 314 317 315 314 314 317 320 322 325 327 332 336 338 343 343 344 348 348 350 352 350 357 358 353 354 354 356 354 355 354 354 364 362 362 362
311 308 313 315 315 314 313 311 310 313 316 315 314 313 317 319 320 324 327 329 334 336 341 344 343 343 346 350 352 353 358 358 355 356 356 353 356 360 357 352 358 358 359 365
308 311 315 313 311 311 311 309 309 309 313 314 312 311 315 319 322 322 326 330 333 336 340 343 343 343 348 349 352 356 356 360 360 359 357 361 362 362 358 355 356 359 359 360
311 314 312 311 309 311 307 313 312 309 307 303 313 302 314 316 319 320 322 326 329 334 341 344 343 343 344 351 353 356 358 360 359 361 357 357 349 348 352 354 357 355 361 362
310 312 311 309 310 312 308 312 310 309 307 306 307 305 311 317 314 317 321 323 327 334 337 344 344 345 346 350 353 357 360 361 360 359 358 355 351 353 355 356 352 356 358 361
313 318 315 313 314 313 313 310 309 309 307 300 306 306 308 312 316 318 321 323 327 331 337 346 348 348 348 349 350 355 359 361 361 362 360 355 351 352 356 355 357 356 355 357
313 314 316 317 312 314 311 306 299 299 300 300 310 307 311 317 319 319 320 322 325 331 335 343 346 346 348 348 350 352 359 359 361 360 360 359 356 357 355 356 356 356 353 353
307 305 314 317 313 310 310 307 301 296 298 302 311 306 310 317 319 321 322 324 326 326 332 337 346 347 349 350 352 353 358 359 361 361 361 360 361 357 356 361 356 352 353 354
307 308 316 315 316 314 309 306 311 305 306 302 306 311 316 319 318 319 322 324 325 327 333 338 344 348 350 351 352 354 357 360 361 360 361 362 361 361 358 358 356 354 355 356
313 307 315 316 317 316 312 314 305 307 300 298 304 308 309 315 317 320 321 324 325 329 335 339 340 344 351 352 354 355 358 359 361 360 361 361 362 362 361 363 357 355 357 361
315 312 311 316 313 311 311 310 309 308 306 301 300 304 318 317 318 319 322 325 325 330 335 338 340 344 349 352 353 355 356 358 360 360 360 360 361 361 362 361 359 359 358 361
318 313 308 311 317 319 317 313 313 306 305 307 307 307 320 320 320 321 322 326 330 334 335 338 341 344 346 350 352 354 356 356 359 360 361 361 362 360 359 359 361 361 357 362
318 313 306 308 312 315 314 315 316 314 312 309 304 306 316 318 321 322 324 329 335 334 337 336 339 343 345 349 351 353 356 356 359 361 360 361 361 361 359 360 361 361 359 359
320 312 308 304 308 312 310 312 314 313 308 308 308 311 316 318 320 320 324 331 332 338 341 338 337 341 347 352 355 358 356 358 360 360 360 360 359 360 360 362 361 363 360 356
317 309 311 312 313 313 311 311 312 311 312 308 310 310 315 320 320 322 325 327 333 335 334 337 342 354 354 364 362 363 363 361 361 362 360 360 363 363 363 364 362 361 364 361
317 310 311 308 311 311 309 311 311 311 312 311 312 311 321 328 330 324 324 331 330 340 344 346 346 349 354 359 366 365 366 371 366 364 361 364 366 366 365 365 366 363 363 362
311 309 307 302 308 307 303 309 309 310 312 312 309 315 325 323 326 328 320 325 336 344 347 350 353 353 356 353 363 363 366 370 372 373 367 366 366 364 365 366 366 365 363 363
309 309 306 301 304 295 306 313 314 311 315 318 318 319 322 320 326 326 327 319 324 337 341 346 350 355 357 356 356 361 363 369 372 370 369 370 367 365 365 365 364 364 364 362
312 308 303 299 299 302 306 309 309 308 310 318 317 319 320 323 327 322 325 331 329 328 334 339 340 350 359 358 360 364 363 365 366 364 367 368 368 364 363 362 363 364 363 363
311 311 305 303 297 294 305 310 313 314 303 316 317 318 318 320 313 319 325 328 330 331 334 334 338 341 347 354 357 357 355 356 357 359 361 362 363 365 364 364 365 365 365 363
305 305 301 301 298 302 308 310 314 298 303 313 315 316 317 315 318 322 325 324 325 329 332 334 334 339 346 349 355 357 359 357 362 362 361 361 361 356 360 362 366 365 364 362
302 301 300 302 299 296 311 309 303 311 317 316 315 317 317 318 319 320 322 323 326 325 329 333 333 333 343 347 350 350 352 359 363 364 361 362 361 364 362 362 362 363 360 359
302 306 302 303 302 314 315 314 317 317 315 316 317 318 319 317 317 318 320 322 323 324 326 328 330 334 339 340 348 349 357 353 355 355 352 355 355 355 359 356 351 348 344 345
310 314 307 308 310 311 314 316 317 317 316 318 318 318 318 317 318 318 319 320 322 324 326 326 329 332 335 340 341 347 353 356 357 355 355 355 356 353 354 354 347 342 341 338
310 311 308 308 311 311 313 315 315 316 317 318 319 319 318 318 318 320 320 324 323 324 327 329 330 333 336 340 340 342 343 345 351 351 352 354 351 348 349 351 350 350 342 335
311 309 305 304 311 310 311 315 316 314 316 317 317 318 320 320 318 321 321 324 324 326 327 327 329 331 335 339 340 344 343 341 344 345 341 342 340 347 349 349 347 321 316 310
Wind_Speed
14 12 13 16 16 17 14 9 10 10 11 3 9 13 13 14 11 13 9 15 16 16 18 18 14 22 19 20 18 13 10 10 8 7 6 2 3 3 3 3 7 7 5 5
14 16 16 17 16 15 11 12 13 11 12 6 12 14 18 15 12 15 14 12 18 16 22 19 15 15 19 17 16 13 12 12 10 7 7 5 5 3 3 3 5 7 5 4
15 18 6 6 13 16 11 12 13 13 12 14 18 20 20 15 17 9 16 15 16 18 23 20 17 15 20 20 17 13 12 12 11 11 7 4 4 3 1 3 4 6 6 6
13 13 15 11 12 15 13 14 13 8 10 12 15 12 17 13 14 13 11 16 14 17 20 21 20 17 15 20 19 18 16 14 12 10 7 8 8 7 6 6 5 4 8 7
14 14 11 13 13 12 15 12 12 12 12 14 17 11 16 12 8 9 9 11 15 18 19 23 22 18 17 17 19 18 17 15 13 13 9 8 7 7 6 4 7 6 8 8
18 15 11 11 10 10 10 16 12 14 13 13 20 15 12 11 12 9 13 9 13 17 18 24 22 20 15 15 15 14 16 15 14 13 13 10 10 9 6 7 6 6 7 8
19 21 17 14 11 14 9 11 10 12 12 10 1 3 5 13 9 7 9 11 12 13 17 21 21 19 16 17 17 15 17 16 16 15 14 13 12 11 8 6 5 5 6 7
14 7 14 14 11 13 11 12 11 16 12 4 11 8 3 2 4 6 9 8 12 13 17 19 21 19 18 17 17 17 18 17 17 16 15 14 14 8 7 6 5 6 8 8
13 11 6 3 3 9 12 13 17 16 16 14 12 11 8 10 7 9 4 2 12 12 15 17 19 18 18 17 18 17 17 18 17 17 14 13 13 13 10 12 10 7 6 5
10 9 9 14 6 10 9 12 12 8 9 11 10 10 7 7 6 7 6 6 11 11 15 16 16 17 18 17 16 17 17 18 17 16 15 13 13 13 11 8 11 10 9 6
13 11 14 5 8 13 11 11 10 13 12 12 7 3 0 8 6 4 6 3 14 13 14 14 14 16 17 17 17 17 16 18 17 16 15 15 14 14 12 10 12 10 9 7
12 10 12 17 16 10 14 12 13 8 10 11 12 9 4 2 9 4 5 5 2 15 15 15 15 15 16 17 16 18 17 17 17 15 13 15 13 13 14 13 11 11 9 6
13 9 9 13 10 18 15 18 18 16 17 14 11 8 15 12 23 21 24 10 5 5 15 16 17 14 14 16 15 16 17 16 17 14 15 14 14 14 13 14 12 12 11 8
6 12 16 14 22 18 9 10 17 19 15 16 15 17 3 16 10 2 21 1 10 6 5 12 14 16 14 12 13 10 15 16 14 16 16 14 15 15 14 12 13 10 12 12
6 14 15 18 21 22 22 22 17 18 21 20 23 22 18 18 4 9 7 20 17 9 5 3 2 3 11 9 10 8 8 12 14 14 16 15 14 13 12 11 13 12 10 12
13 13 16 19 21 22 25 22 23 22 20 24 24 23 18 27 25 13 14 10 14 12 10 9 7 7 8 5 6 7 6 4 9 11 14 13 12 11 11 11 11 12 11 10
13 12 13 17 18 20 19 20 22 23 19 20 14 15 21 21 25 27 27 25 13 10 11 13 11 12 9 2 5 5 5 4 5 6 10 11 12 12 10 10 10 11 12 11
11 11 10 13 15 18 15 15 25 22 14 16 12 19 12 10 11 24 22 29 39 26 15 13 11 10 10 8 7 6 7 5 4 5 7 7 10 11 11 11 12 11 11 12
7 6 7 8 12 18 13 32 27 22 19 17 14 11 15 16 8 17 19 16 25 24 19 12 10 11 9 8 8 4 6 5 3 5 5 6 7 10 10 11 11 10 11 11
9 6 7 11 13 17 9 18 25 26 9 23 29 13 13 14 9 3 6 7 5 15 18 18 17 12 13 11 8 8 7 4 2 3 6 5 5 7 9 9 10 10 9 9
7 9 11 11 13 8 8 11 10 7 8 15 14 29 15 12 8 6 2 7 13 4 5 16 16 10 10 9 8 6 5 3 2 2 4 4 3 2 2 7 9 9 9 9
6 7 8 7 12 5 3 8 6 5 8 6 8 16 15 14 14 13 11 4 4 8 9 5 11 11 7 8 5 3 5 4 4 5 4 3 2 2 4 6 5 4 7 5
2 8 7 7 9 10 13 15 15 18 15 17 20 22 19 18 17 16 13 15 5 6 10 8 5 7 6 7 5 8 4 2 2 2 2 3 4 5 4 3 1 3 4 1
3 13 6 10 12 18 17 15 20 19 22 23 21 21 21 23 22 20 16 14 13 10 9 9 8 8 8 5 5 5 5 4 5 5 5 5 5 5 3 3 4 2 4 4
8 10 13 13 11 23 17 21 21 22 22 22 22 23 23 22 22 22 18 20 13 13 10 7 8 7 8 6 6 7 5 7 6 6 6 5 6 7 7 6 4 3 8 9
5 5 5 8 16 12 19 20 21 20 21 21 23 22 22 19 19 19 17 18 16 15 14 11 8 8 9 6 5 5 7 9 6 7 8 6 7 7 8 6 8 9 6 9
Wind_Direction
224 235 240 247 247 259 295 327 296 286 280 296 291 286 279 274 208 188 224 174 173 179 165 172 212 168 169 174 172 189 156 152 152 152 180 193 221 177 194 205 153 179 221 228
247 231 242 257 277 280 315 294 277 281 266 299 274 291 279 261 253 202 187 211 177 185 161 165 188 188 171 170 177 176 169 157 162 171 186 192 206 202 190 191 175 169 218 244
239 258 232 299 274 275 253 269 289 297 315 304 275 261 259 282 208 242 184 197 190 184 162 164 175 202 175 172 180 176 167 167 181 169 182 198 194 209 167 202 177 178 184 235
261 256 274 252 271 272 279 277 278 320 301 281 314 303 273 250 174 185 212 202 196 183 167 164 173 198 189 170 176 180 177 175 179 188 190 177 189 202 204 181 193 193 189 214
271 256 239 271 267 275 280 303 314 307 279 284 274 262 280 161 185 181 191 233 197 181 178 162 173 186 193 171 179 175 176 173 181 193 199 184 195 209 208 175 185 203 191 199
276 276 266 273 281 260 279 273 274 269 256 259 254 240 275 159 141 160 174 198 207 184 177 160 168 174 191 179 172 170 174 180 185 188 185 184 193 227 215 214 179 210 181 196
238 232 231 240 248 268 251 256 257 242 231 252 247 176 236 135 162 183 188 188 182 190 173 161 164 168 182 177 175 176 173 184 186 189 190 188 198 210 209 208 167 187 219 199
284 349 195 187 215 269 222 253 267 296 310 313 292 281 190 206 92 127 234 225 180 194 169 167 163 168 175 175 176 177 175 182 187 191 200 195 197 209 200 183 188 203 222 229
299 45 126 227 283 214 252 254 252 282 292 283 281 256 354 179 169 221 8 311 155 185 160 162 164 166 170 175 178 181 175 181 189 194 196 193 201 209 207 187 190 208 246 232
296 294 294 141 199 234 254 281 271 240 261 265 264 62 42 46 74 54 268 183 154 174 155 161 170 169 168 179 177 181 176 182 186 195 195 197 198 202 221 172 191 201 222 219
310 297 288 237 216 262 190 223 235 273 292 302 281 102 143 347 312 292 262 230 168 165 161 163 167 170 169 178 179 182 183 179 186 196 192 197 197 198 203 218 191 198 218 199
309 311 292 292 312 277 278 295 290 251 244 248 280 298 45 220 316 245 252 176 308 161 165 165 169 172 176 178 188 183 186 184 184 188 197 192 192 199 194 209 203 185 206 216
354 298 292 276 277 14 330 338 339 306 283 276 258 261 92 351 334 331 322 145 185 241 171 173 172 177 183 179 188 185 184 189 181 188 192 190 193 196 204 194 215 184 196 210
332 285 283 287 301 316 291 294 293 305 304 308 299 313 222 162 154 213 305 179 166 208 207 181 181 175 180 180 179 188 181 184 185 184 186 192 195 197 204 195 198 192 188 200
268 269 285 298 304 307 305 302 288 276 291 300 303 301 305 308 269 224 30 337 306 169 144 163 4 189 161 145 162 175 173 184 183 178 188 191 194 197 198 198 190 200 190 191
326 310 312 304 300 296 293 286 289 287 270 272 282 289 349 14 5 232 187 144 344 59 52 44 55 62 98 120 129 152 172 180 177 189 188 183 187 194 200 200 189 191 198 196
292 295 302 293 303 300 290 297 303 308 304 303 333 351 17 12 10 13 4 4 189 141 49 46 36 37 17 153 149 160 165 207 184 178 181 182 182 192 199 199 200 192 199 196
277 283 281 287 291 275 291 354 359 339 37 7 3 44 27 351 8 28 8 2 310 70 65 46 43 38 22 7 155 165 166 189 197 203 183 179 178 190 197 201 203 202 199 206
331 289 323 311 290 291 3 15 359 355 342 12 354 0 3 352 64 32 9 32 319 342 350 19 41 33 53 46 24 68 117 146 203 202 195 198 191 197 201 203 204 204 205 206
318 304 275 288 293 292 32 359 335 330 328 5 337 354 3 349 9 32 17 265 313 341 342 348 354 38 25 25 56 33 46 67 23 258 193 184 201 207 208 208 209 210 208 209
335 326 291 295 305 93 24 340 309 295 312 340 335 325 347 347 359 334 40 344 344 353 332 337 343 355 14 2 35 56 86 35 350 54 76 123 133 121 211 210 214 209 202 212
313 326 302 335 332 10 303 343 318 310 233 223 220 263 309 317 321 332 336 350 292 292 290 322 327 345 4 356 13 55 47 25 12 344 355 4 343 229 234 233 242 242 220 211
244 7 319 325 321 44 13 336 356 352 341 337 331 329 321 312 303 315 316 312 273 270 304 323 289 299 344 349 11 356 85 142 336 78 86 45 2 6 344 260 167 110 40 2
358 38 321 351 344 337 349 332 348 336 329 323 314 312 307 307 314 314 304 298 301 297 278 272 257 267 276 297 326 336 316 263 241 212 231 230 210 201 246 198 186 166 225 213
18 325 351 310 326 334 331 324 321 325 318 316 315 315 311 312 309 305 309 311 294 293 290 289 302 270 252 229 261 262 287 307 270 273 238 233 205 196 199 196 255 191 208 214
31 20 335 311 318 319 306 316 314 315 314 317 310 306 303 303 295 295 291 300 302 307 293 279 283 292 295 288 272 239 250 265 270 268 264 240 240 195 202 187 170 230 228 198